Location: Unspecified
(0.0000°N, 0.0000°E)
Time: 23:59:51
(UTC+00:00)

CAPRICORN - Pass Details

Date: 22 May 2026
Orbit: 325 x 40040 km, 64.5° (Epoch: 16 April)

Event Time Altitude Azimuth Distance (km) Brightness Sun altitude
Rises 20:15:08 0° 110° (ESE) 43,009 ? -32.2°
Reaches altitude 10° 21:04:23 10° 105° (ESE) 44,016 ? -43.2°
Maximum altitude 01:29:28 59° 50° (NE) 29,370 ? -59.5°
Drops below altitude 10° 03:20:55 10° 16° (NNE) 13,029 ? -36.1°
Sets 03:27:34 0° 18° (NNE) 12,236 ? -34.6°
